Location: Tierra del Sol
(32.6128°N, 116.3319°W)
Time: 12:17:28
(UTC-08:00)

Envisat - Pass Details

Date: 27 June 2018
Orbit: 764 x 766 km, 98.2° (Epoch: 18 November)

Event Time Altitude Azimuth Distance (km) Brightness Sun altitude
Rises 20:36:40 0° 184° (S) 3,217 5.9 -8.0°
Reaches altitude 10° 20:39:05 10° 192° (SSW) 2,294 5.2 -8.4°
Maximum altitude 20:43:50 40° 261° (W) 1,116 4.3 -9.2°
Drops below altitude 10° 20:48:36 10° 331° (NNW) 2,306 6.6 -10.0°
Sets 20:51:02 0° 339° (NNW) 3,236 7.3 -10.4°
